Flag for Ecuador Weather past 2 weeks in Quito, Ecuador

Now
54 °F

Passing clouds.


Feels Like: 49 °F
Forecast: 45 / 66 °F
Wind: 17 mph from South

Location: Latacunga Airport

Current Time: Jul 29, 2015 at 9:10:52 PM

Latest Report: Jul 29, 2015 at 8:00 PM


Visibility: N/A

Pressure: 30.42 "Hg (21.68 "Hg at 2826m altitude)

Humidity: 77%

Dew point: 46 °F

Location of QuitoLocation

Historic Weather in Quito — Graph

°F

Quito temperature yesterday

Maximum temperature yesterday: 63 °F (at 1:00 PM)
Minimum temperature yesterday: 50 °F (at 1:00 AM)
Average temperature yesterday: 55 °F

Past Weeks' High & Low Weather Summary

 TemperatureHumidityPressure
High68 °F (Jul 20, 3:00 PM)100% (Jul 16, 3:00 AM)30.51 "Hg (Jul 16, 3:00 AM)
Low37 °F (Jul 15, 4:00 AM)46% (Jul 16, 2:00 PM)30.30 "Hg (Jul 28, 4:00 PM)
Average54 °F82%30.44 "Hg
* Reported Jul 14 8:00 PM — Jul 29 8:00 PM, Quito, Weather by CustomWeather, © 2015

Note: Actual official high and low records may vary slightly from our data, if they occured in-between our weather recording intervals... More about our weather records

Advertising

Quito weather history for previous 24 hours

 ConditionsComfort  
Time TempWeatherWind HumidityBarometerVisibility
8:00 PM
Wed, Jul 29
54 °FPassing clouds.17 mph77%30.42 "HgN/A
7:00 PM55 °FPassing clouds.14 mph72%30.39 "HgN/A
6:00 PM57 °FScattered clouds.16 mph77%30.36 "HgN/A
5:00 PM59 °FPartly sunny.18 mph68%30.36 "HgN/A
4:00 PM63 °FPartly sunny.20 mph59%30.36 "HgN/A
3:00 PM61 °FScattered showers. Partly sunny.21 mph63%30.36 "HgN/A
2:00 PM63 °FScattered showers. Broken clouds.18 mph59%30.39 "HgN/A
1:00 PM59 °FScattered showers. Broken clouds.18 mph72%30.42 "HgN/A
12:00 PM59 °FScattered showers. Broken clouds.18 mph72%30.45 "HgN/A
11:00 AM57 °FScattered showers. Broken clouds.20 mph77%30.45 "HgN/A
10:00 AM54 °FScattered showers. Broken clouds.20 mph88%30.45 "HgN/A
9:00 AM54 °FPartly sunny.15 mph88%30.45 "HgN/A
8:00 AM52 °FBroken clouds.16 mph94%30.42 "HgN/A
7:00 AM50 °FScattered clouds.12 mph94%30.39 "HgN/A
6:00 AM50 °FPartly cloudy.10 mph94%30.36 "HgN/A
5:00 AM50 °FPartly cloudy.12 mph94%30.36 "HgN/A
4:00 AM50 °FPartly cloudy.10 mph94%30.39 "HgN/A
3:00 AM50 °FPartly cloudy.12 mph94%30.39 "HgN/A
2:00 AM50 °FPassing clouds.10 mph94%30.42 "HgN/A
1:00 AM50 °FPassing clouds.12 mph94%30.42 "HgN/A
12:00 AM52 °FPassing clouds.14 mph88%30.45 "HgN/A
11:00 PM
Tue, Jul 28
52 °FPassing clouds.15 mph88%30.42 "HgN/A
10:00 PM52 °FPassing clouds.13 mph88%30.42 "HgN/A
9:00 PM54 °FPassing clouds.16 mph82%30.39 "HgN/A
Weather by CustomWeather, © 2015

See weather overviewHow to use our weather pages